"Period start","avg(HW err(1)/warn(2) (#))","avg(Visibility (m))","avg(Weather code (#))","avg(Precip intensity (mm/h))","min(HW err(1)/warn(2) (#))","max(HW err(1)/warn(2) (#))","std(HW err(1)/warn(2) (#))","med(HW err(1)/warn(2) (#))","min(Visibility (m))","max(Visibility (m))","std(Visibility (m))","med(Visibility (m))","min(Weather code (#))","max(Weather code (#))","std(Weather code (#))","med(Weather code (#))","min(Precip intensity (mm/h))","max(Precip intensity (mm/h))","std(Precip intensity (mm/h))","med(Precip intensity (mm/h))"
2013-10-04 00:00:00,2,45547,0,0.00,2,2,0,2,38493,50000,4804,47388,0,0,0,0,0.00,0.00,0.00,0.00
2013-10-04 00:10:00,2,48837,0,0.00,2,2,0,2,44479,50000,1833,50000,0,0,0,0,0.00,0.00,0.00,0.00
2013-10-04 00:20:00,2,48753,0,0.00,2,2,0,2,43135,50000,2126,50000,0,0,0,0,0.00,0.00,0.00,0.00
2013-10-04 00:30:00,2,45472,0,0.00,2,2,0,2,38198,50000,3895,45864,0,0,0,0,0.00,0.00,0.00,0.00
2013-10-04 00:40:00,2,46395,0,0.00,2,2,0,2,35273,50000,4834,48484,0,0,0,0,0.00,0.00,0.00,0.00
2013-10-04 00:50:00,2,49535,0,0.00,2,2,0,2,47085,50000,887,50000,0,0,0,0,0.00,0.00,0.00,0.00
2013-10-04 01:00:00,2,42610,0,0.00,2,2,0,2,33880,50000,4815,43313,0,0,0,0,0.00,0.00,0.00,0.00
2013-10-04 01:10:00,2,43992,0,0.00,2,2,0,2,33397,50000,5813,44994,0,0,0,0,0.00,0.00,0.00,0.00
2013-10-04 01:20:00,2,48338,0,0.00,2,2,0,2,45160,50000,2015,49788,0,0,0,0,0.00,0.00,0.00,0.00
2013-10-04 01:30:00,2,43680,0,0.00,2,2,0,2,33813,50000,5578,45278,0,0,0,0,0.00,0.00,0.00,0.00
2013-10-04 01:40:00,2,44818,0,0.00,2,2,0,2,37573,50000,4944,45024,0,0,0,0,0.00,0.00,0.00,0.00
2013-10-04 01:50:00,2,43884,0,0.00,2,2,0,2,33253,50000,5166,45659,0,0,0,0,0.00,0.00,0.00,0.00
2013-10-04 02:00:00,2,45817,0,0.00,2,2,0,2,36401,50000,5167,48325,0,0,0,0,0.00,0.00,0.00,0.00
2013-10-04 02:10:00,2,46546,0,0.00,2,2,0,2,35544,50000,4645,48553,0,0,0,0,0.00,0.00,0.00,0.00
2013-10-04 02:20:00,2,47955,0,0.00,2,2,0,2,34880,50000,4522,50000,0,0,0,0,0.00,0.00,0.00,0.00
2013-10-04 02:30:00,2,42074,0,0.00,2,2,0,2,29747,50000,6606,44445,0,0,0,0,0.00,0.00,0.00,0.00
2013-10-04 02:40:00,2,42649,0,0.00,2,2,0,2,30455,50000,6792,41975,0,0,0,0,0.00,0.00,0.00,0.00
2013-10-04 02:50:00,2,45934,0,0.00,2,2,0,2,37322,50000,5102,50000,0,0,0,0,0.00,0.00,0.00,0.00
2013-10-04 03:00:00,2,43959,0,0.00,2,2,0,2,29210,49425,5537,44916,0,0,0,0,0.00,0.00,0.00,0.00
2013-10-04 03:10:00,2,37022,0,0.00,2,2,0,2,23385,50000,8085,36422,0,0,0,0,0.00,0.00,0.00,0.00
2013-10-04 03:20:00,2,47325,0,0.00,2,2,0,2,42860,50000,2761,48453,0,0,0,0,0.00,0.00,0.00,0.00
2013-10-04 03:30:00,2,46178,0,0.00,2,2,0,2,35897,50000,4647,48672,0,0,0,0,0.00,0.00,0.00,0.00
2013-10-04 03:40:00,2,45572,0,0.00,2,2,0,2,36105,50000,5141,48036,0,0,0,0,0.00,0.00,0.00,0.00
2013-10-04 03:50:00,2,43356,0,0.00,2,2,0,2,28582,50000,7404,46184,0,0,0,0,0.00,0.00,0.00,0.00
2013-10-04 04:00:00,2,44795,0,0.00,2,2,0,2,37193,50000,5458,48107,0,0,0,0,0.00,0.00,0.00,0.00
2013-10-04 04:10:00,2,43854,0,0.00,2,2,0,2,27414,50000,6725,46129,0,0,0,0,0.00,0.00,0.00,0.00
2013-10-04 04:20:00,2,45724,0,0.00,2,2,0,2,29740,50000,6514,48591,0,0,0,0,0.00,0.00,0.00,0.00
2013-10-04 04:30:00,2,43394,0,0.00,2,2,0,2,31743,50000,6747,46858,0,0,0,0,0.00,0.00,0.00,0.00
2013-10-04 04:40:00,2,40885,0,0.00,2,2,0,2,35552,47008,4112,41108,0,0,0,0,0.00,0.00,0.00,0.00
2013-10-04 04:50:00,2,47796,0,0.00,2,2,0,2,42830,50000,2711,49298,0,0,0,0,0.00,0.00,0.00,0.00
2013-10-04 05:00:00,2,47312,0,0.00,2,2,0,2,33056,50000,5573,50000,0,0,0,0,0.00,0.00,0.00,0.00
2013-10-04 05:10:00,2,48244,0,0.00,2,2,0,2,41551,50000,2697,50000,0,0,0,0,0.00,0.00,0.00,0.00
2013-10-04 05:20:00,2,44551,0,0.00,2,2,0,2,36353,50000,5647,46417,0,0,0,0,0.00,0.00,0.00,0.00
2013-10-04 05:30:00,2,46201,0,0.00,2,2,0,2,37734,50000,4983,49966,0,0,0,0,0.00,0.00,0.00,0.00
2013-10-04 05:40:00,2,44920,0,0.00,2,2,0,2,27753,50000,6490,47041,0,0,0,0,0.00,0.00,0.00,0.00
2013-10-04 05:50:00,2,46108,0,0.00,2,2,0,2,35887,50000,4408,47152,0,0,0,0,0.00,0.00,0.00,0.00
2013-10-04 06:00:00,2,45577,0,0.00,2,2,0,2,39566,50000,3407,44738,0,0,0,0,0.00,0.00,0.00,0.00
2013-10-04 06:10:00,2,44265,0,0.00,2,2,0,2,35400,50000,4880,44861,0,0,0,0,0.00,0.00,0.00,0.00
2013-10-04 06:20:00,2,44433,0,0.00,2,2,0,2,36378,50000,4884,45535,0,0,0,0,0.00,0.00,0.00,0.00
2013-10-04 06:30:00,2,48786,0,0.00,2,2,0,2,43438,50000,2113,50000,0,0,0,0,0.00,0.00,0.00,0.00
2013-10-04 06:40:00,2,48243,0,0.00,2,2,0,2,39792,50000,3373,50000,0,0,0,0,0.00,0.00,0.00,0.00
2013-10-04 06:50:00,2,49762,0,0.00,2,2,0,2,48519,50000,457,50000,0,0,0,0,0.00,0.00,0.00,0.00
2013-10-04 07:00:00,2,48345,0,0.00,2,2,0,2,44154,50000,2191,49740,0,0,0,0,0.00,0.00,0.00,0.00
2013-10-04 07:10:00,2,49069,0,0.00,2,2,0,2,44924,50000,1742,50000,0,0,0,0,0.00,0.00,0.00,0.00
2013-10-04 07:20:00,2,46251,0,0.00,2,2,0,2,36057,50000,4341,48055,0,0,0,0,0.00,0.00,0.00,0.00
2013-10-04 07:30:00,2,48004,0,0.00,2,2,0,2,41480,50000,2710,49534,0,0,0,0,0.00,0.00,0.00,0.00
2013-10-04 07:40:00,2,49725,0,0.00,2,2,0,2,47253,50000,824,50000,0,0,0,0,0.00,0.00,0.00,0.00
2013-10-04 07:50:00,2,50000,0,0.00,2,2,0,2,50000,50000,0,50000,0,0,0,0,0.00,0.00,0.00,0.00
2013-10-04 08:00:00,2,50000,0,0.00,2,2,0,2,50000,50000,0,50000,0,0,0,0,0.00,0.00,0.00,0.00
2013-10-04 08:10:00,2,50000,0,0.00,2,2,0,2,50000,50000,0,50000,0,0,0,0,0.00,0.00,0.00,0.00
2013-10-04 08:20:00,2,50000,0,0.00,2,2,0,2,50000,50000,0,50000,0,0,0,0,0.00,0.00,0.00,0.00
2013-10-04 08:30:00,2,50000,0,0.00,2,2,0,2,50000,50000,0,50000,0,0,0,0,0.00,0.00,0.00,0.00
2013-10-04 08:40:00,2,50000,0,0.00,2,2,0,2,50000,50000,0,50000,0,0,0,0,0.00,0.00,0.00,0.00
2013-10-04 08:50:00,2,50000,0,0.00,2,2,0,2,50000,50000,0,50000,0,0,0,0,0.00,0.00,0.00,0.00
2013-10-04 09:00:00,2,50000,0,0.00,2,2,0,2,50000,50000,0,50000,0,0,0,0,0.00,0.00,0.00,0.00
2013-10-04 09:10:00,2,50000,0,0.00,2,2,0,2,50000,50000,0,50000,0,0,0,0,0.00,0.00,0.00,0.00
2013-10-04 09:20:00,2,50000,0,0.00,2,2,0,2,50000,50000,0,50000,0,0,0,0,0.00,0.00,0.00,0.00
2013-10-04 09:30:00,2,50000,0,0.00,2,2,0,2,50000,50000,0,50000,0,0,0,0,0.00,0.00,0.00,0.00
2013-10-04 09:40:00,2,50000,0,0.00,2,2,0,2,50000,50000,0,50000,0,0,0,0,0.00,0.00,0.00,0.00
2013-10-04 09:50:00,2,50000,0,0.00,2,2,0,2,50000,50000,0,50000,0,0,0,0,0.00,0.00,0.00,0.00
2013-10-04 10:00:00,2,50000,0,0.00,2,2,0,2,50000,50000,0,50000,0,0,0,0,0.00,0.00,0.00,0.00
2013-10-04 10:10:00,2,50000,0,0.00,2,2,0,2,50000,50000,0,50000,0,0,0,0,0.00,0.00,0.00,0.00
2013-10-04 10:20:00,2,50000,0,0.00,2,2,0,2,50000,50000,0,50000,0,0,0,0,0.00,0.00,0.00,0.00
2013-10-04 10:30:00,2,50000,0,0.00,2,2,0,2,50000,50000,0,50000,0,0,0,0,0.00,0.00,0.00,0.00
2013-10-04 10:40:00,2,50000,0,0.00,2,2,0,2,50000,50000,0,50000,0,0,0,0,0.00,0.00,0.00,0.00
2013-10-04 10:50:00,2,50000,0,0.00,2,2,0,2,50000,50000,0,50000,0,0,0,0,0.00,0.00,0.00,0.00
2013-10-04 11:00:00,2,50000,0,0.00,2,2,0,2,50000,50000,0,50000,0,0,0,0,0.00,0.00,0.00,0.00
2013-10-04 11:10:00,2,50000,0,0.00,2,2,0,2,50000,50000,0,50000,0,0,0,0,0.00,0.00,0.00,0.00
2013-10-04 11:20:00,2,50000,0,0.00,2,2,0,2,50000,50000,0,50000,0,0,0,0,0.00,0.00,0.00,0.00
2013-10-04 11:30:00,2,50000,0,0.00,2,2,0,2,50000,50000,0,50000,0,0,0,0,0.00,0.00,0.00,0.00
2013-10-04 11:40:00,2,50000,0,0.00,2,2,0,2,50000,50000,0,50000,0,0,0,0,0.00,0.00,0.00,0.00
2013-10-04 11:50:00,2,50000,0,0.00,2,2,0,2,50000,50000,0,50000,0,0,0,0,0.00,0.00,0.00,0.00
2013-10-04 12:00:00,2,50000,0,0.00,2,2,0,2,50000,50000,0,50000,0,0,0,0,0.00,0.00,0.00,0.00
2013-10-04 12:10:00,2,50000,0,0.00,2,2,0,2,50000,50000,0,50000,0,0,0,0,0.00,0.00,0.00,0.00
2013-10-04 12:20:00,2,50000,0,0.00,2,2,0,2,50000,50000,0,50000,0,0,0,0,0.00,0.00,0.00,0.00
2013-10-04 12:30:00,2,50000,0,0.00,2,2,0,2,50000,50000,0,50000,0,0,0,0,0.00,0.00,0.00,0.00
2013-10-04 12:40:00,2,50000,0,0.00,2,2,0,2,50000,50000,0,50000,0,0,0,0,0.00,0.00,0.00,0.00
2013-10-04 12:50:00,2,50000,0,0.00,2,2,0,2,50000,50000,0,50000,0,0,0,0,0.00,0.00,0.00,0.00
2013-10-04 13:00:00,2,50000,0,0.00,2,2,0,2,50000,50000,0,50000,0,0,0,0,0.00,0.00,0.00,0.00
2013-10-04 13:10:00,2,50000,0,0.00,2,2,0,2,50000,50000,0,50000,0,0,0,0,0.00,0.00,0.00,0.00
2013-10-04 13:20:00,2,50000,0,0.00,2,2,0,2,50000,50000,0,50000,0,0,0,0,0.00,0.00,0.00,0.00
2013-10-04 13:30:00,2,50000,0,0.00,2,2,0,2,50000,50000,0,50000,0,0,0,0,0.00,0.00,0.00,0.00
2013-10-04 13:40:00,2,50000,0,0.00,2,2,0,2,50000,50000,0,50000,0,0,0,0,0.00,0.00,0.00,0.00
2013-10-04 13:50:00,2,50000,0,0.00,2,2,0,2,50000,50000,0,50000,0,0,0,0,0.00,0.00,0.00,0.00
2013-10-04 14:00:00,2,50000,0,0.00,2,2,0,2,50000,50000,0,50000,0,0,0,0,0.00,0.00,0.00,0.00
2013-10-04 14:10:00,2,50000,0,0.00,2,2,0,2,50000,50000,0,50000,0,0,0,0,0.00,0.00,0.00,0.00
2013-10-04 14:20:00,2,50000,0,0.00,2,2,0,2,50000,50000,0,50000,0,0,0,0,0.00,0.00,0.00,0.00
2013-10-04 14:30:00,2,50000,0,0.00,2,2,0,2,50000,50000,0,50000,0,0,0,0,0.00,0.00,0.00,0.00
2013-10-04 14:40:00,2,50000,0,0.00,2,2,0,2,50000,50000,0,50000,0,0,0,0,0.00,0.00,0.00,0.00
2013-10-04 14:50:00,2,50000,0,0.00,2,2,0,2,50000,50000,0,50000,0,0,0,0,0.00,0.00,0.00,0.00
2013-10-04 15:00:00,2,50000,0,0.00,2,2,0,2,50000,50000,0,50000,0,0,0,0,0.00,0.00,0.00,0.00
2013-10-04 15:10:00,2,50000,0,0.00,2,2,0,2,50000,50000,0,50000,0,0,0,0,0.00,0.00,0.00,0.00
2013-10-04 15:20:00,2,50000,0,0.00,2,2,0,2,50000,50000,0,50000,0,0,0,0,0.00,0.00,0.00,0.00
2013-10-04 15:30:00,2,50000,0,0.00,2,2,0,2,50000,50000,0,50000,0,0,0,0,0.00,0.00,0.00,0.00
2013-10-04 15:40:00,2,50000,0,0.00,2,2,0,2,50000,50000,0,50000,0,0,0,0,0.00,0.00,0.00,0.00
2013-10-04 15:50:00,2,50000,0,0.00,2,2,0,2,50000,50000,0,50000,0,0,0,0,0.00,0.00,0.00,0.00
2013-10-04 16:00:00,2,50000,0,0.00,2,2,0,2,50000,50000,0,50000,0,0,0,0,0.00,0.00,0.00,0.00
2013-10-04 16:10:00,2,50000,0,0.00,2,2,0,2,50000,50000,0,50000,0,0,0,0,0.00,0.00,0.00,0.00
2013-10-04 16:20:00,2,50000,0,0.00,2,2,0,2,50000,50000,0,50000,0,0,0,0,0.00,0.00,0.00,0.00
2013-10-04 16:30:00,2,50000,0,0.00,2,2,0,2,50000,50000,0,50000,0,0,0,0,0.00,0.00,0.00,0.00
2013-10-04 16:40:00,2,50000,0,0.00,2,2,0,2,50000,50000,0,50000,0,0,0,0,0.00,0.00,0.00,0.00
2013-10-04 16:50:00,2,50000,0,0.00,2,2,0,2,50000,50000,0,50000,0,0,0,0,0.00,0.00,0.00,0.00
2013-10-04 17:00:00,2,50000,0,0.00,2,2,0,2,50000,50000,0,50000,0,0,0,0,0.00,0.00,0.00,0.00
2013-10-04 17:10:00,2,50000,0,0.00,2,2,0,2,50000,50000,0,50000,0,0,0,0,0.00,0.00,0.00,0.00
2013-10-04 17:20:00,2,50000,0,0.00,2,2,0,2,50000,50000,0,50000,0,0,0,0,0.00,0.00,0.00,0.00
2013-10-04 17:30:00,2,50000,0,0.00,2,2,0,2,50000,50000,0,50000,0,0,0,0,0.00,0.00,0.00,0.00
2013-10-04 17:40:00,2,50000,0,0.00,2,2,0,2,50000,50000,0,50000,0,0,0,0,0.00,0.00,0.00,0.00
2013-10-04 17:50:00,2,50000,0,0.00,2,2,0,2,50000,50000,0,50000,0,0,0,0,0.00,0.00,0.00,0.00
2013-10-04 18:00:00,2,50000,0,0.00,2,2,0,2,50000,50000,0,50000,0,0,0,0,0.00,0.00,0.00,0.00
2013-10-04 18:10:00,2,50000,0,0.00,2,2,0,2,50000,50000,0,50000,0,0,0,0,0.00,0.00,0.00,0.00
2013-10-04 18:20:00,2,50000,0,0.00,2,2,0,2,50000,50000,0,50000,0,0,0,0,0.00,0.00,0.00,0.00
2013-10-04 18:30:00,2,50000,0,0.00,2,2,0,2,50000,50000,0,50000,0,0,0,0,0.00,0.00,0.00,0.00
2013-10-04 18:40:00,2,50000,0,0.00,2,2,0,2,50000,50000,0,50000,0,0,0,0,0.00,0.00,0.00,0.00
2013-10-04 18:50:00,2,50000,0,0.00,2,2,0,2,50000,50000,0,50000,0,0,0,0,0.00,0.00,0.00,0.00
2013-10-04 19:00:00,2,50000,0,0.00,2,2,0,2,50000,50000,0,50000,0,0,0,0,0.00,0.00,0.00,0.00
2013-10-04 19:10:00,2,50000,0,0.00,2,2,0,2,50000,50000,0,50000,0,0,0,0,0.00,0.00,0.00,0.00
2013-10-04 19:20:00,2,50000,0,0.00,2,2,0,2,50000,50000,0,50000,0,0,0,0,0.00,0.00,0.00,0.00
2013-10-04 19:30:00,2,50000,0,0.00,2,2,0,2,50000,50000,0,50000,0,0,0,0,0.00,0.00,0.00,0.00
2013-10-04 19:40:00,2,50000,0,0.00,2,2,0,2,50000,50000,0,50000,0,0,0,0,0.00,0.00,0.00,0.00
2013-10-04 19:50:00,2,50000,0,0.00,2,2,0,2,50000,50000,0,50000,0,0,0,0,0.00,0.00,0.00,0.00
2013-10-04 20:00:00,2,50000,0,0.00,2,2,0,2,50000,50000,0,50000,0,0,0,0,0.00,0.00,0.00,0.00
2013-10-04 20:10:00,2,50000,0,0.00,2,2,0,2,50000,50000,0,50000,0,0,0,0,0.00,0.00,0.00,0.00
2013-10-04 20:20:00,2,50000,0,0.00,2,2,0,2,50000,50000,0,50000,0,0,0,0,0.00,0.00,0.00,0.00
2013-10-04 20:30:00,2,50000,0,0.00,2,2,0,2,50000,50000,0,50000,0,0,0,0,0.00,0.00,0.00,0.00
2013-10-04 20:40:00,2,50000,0,0.00,2,2,0,2,50000,50000,0,50000,0,0,0,0,0.00,0.00,0.00,0.00
2013-10-04 20:50:00,2,50000,0,0.00,2,2,0,2,50000,50000,0,50000,0,0,0,0,0.00,0.00,0.00,0.00
2013-10-04 21:00:00,2,50000,0,0.00,2,2,0,2,50000,50000,0,50000,0,0,0,0,0.00,0.00,0.00,0.00
2013-10-04 21:10:00,2,50000,0,0.00,2,2,0,2,50000,50000,0,50000,0,0,0,0,0.00,0.00,0.00,0.00
2013-10-04 21:20:00,2,50000,0,0.00,2,2,0,2,50000,50000,0,50000,0,0,0,0,0.00,0.00,0.00,0.00
2013-10-04 21:30:00,2,50000,0,0.00,2,2,0,2,50000,50000,0,50000,0,0,0,0,0.00,0.00,0.00,0.00
2013-10-04 21:40:00,2,50000,0,0.00,2,2,0,2,50000,50000,0,50000,0,0,0,0,0.00,0.00,0.00,0.00
2013-10-04 21:50:00,2,50000,0,0.00,2,2,0,2,50000,50000,0,50000,0,0,0,0,0.00,0.00,0.00,0.00
2013-10-04 22:00:00,2,50000,0,0.00,2,2,0,2,50000,50000,0,50000,0,0,0,0,0.00,0.00,0.00,0.00
2013-10-04 22:10:00,2,50000,0,0.00,2,2,0,2,50000,50000,0,50000,0,0,0,0,0.00,0.00,0.00,0.00
2013-10-04 22:20:00,2,50000,0,0.00,2,2,0,2,50000,50000,0,50000,0,0,0,0,0.00,0.00,0.00,0.00
2013-10-04 22:30:00,2,50000,0,0.00,2,2,0,2,50000,50000,0,50000,0,0,0,0,0.00,0.00,0.00,0.00
2013-10-04 22:40:00,2,50000,0,0.00,2,2,0,2,50000,50000,0,50000,0,0,0,0,0.00,0.00,0.00,0.00
2013-10-04 22:50:00,2,50000,0,0.00,2,2,0,2,50000,50000,0,50000,0,0,0,0,0.00,0.00,0.00,0.00
2013-10-04 23:00:00,2,49673,0,0.00,2,2,0,2,46734,50000,980,50000,0,0,0,0,0.00,0.00,0.00,0.00
2013-10-04 23:10:00,2,49654,0,0.00,2,2,0,2,47585,50000,757,50000,0,0,0,0,0.00,0.00,0.00,0.00
2013-10-04 23:20:00,2,49589,0,0.00,2,2,0,2,47447,50000,788,50000,0,0,0,0,0.00,0.00,0.00,0.00
2013-10-04 23:30:00,2,49722,0,0.00,2,2,0,2,47218,50000,835,50000,0,0,0,0,0.00,0.00,0.00,0.00
2013-10-04 23:40:00,2,48947,0,0.00,2,2,0,2,43534,50000,1992,50000,0,0,0,0,0.00,0.00,0.00,0.00
2013-10-04 23:50:00,2,47458,0,0.00,2,2,0,2,41304,50000,3012,49182,0,0,0,0,0.00,0.00,0.00,0.00
